CW0451 Weather Reports


Display with metric or nautical units.
time (UTC)temp
F
wind
direction
speed
MPH
gust
MPH
rain 1hr
in
rain 24hr
in
rain mn
in
humidity
%
barometer
mb
20260504130104 59 253 4.0 14.0 0.00 0.01 0.00 50 1011.1
20260504090123 44 248 3.0 8.0 0.00 0.01 0.00 70 1010.8
20260504081102 44 229 3.0 6.0 0.00 0.01 0.00 67 1010.8
20260504070124 40 243 1.0 3.0 0.00 0.01 0.00 81 1010.6
20260504045103 41 251 3.0 6.0 0.00 0.01 0.00 71 1010.6
20260504044103 41 255 3.0 7.0 0.00 0.01 0.00 72 1010.5
20260504043102 40 254 2.0 7.0 0.00 0.01 0.00 74 1010.6
20260504042103 39 255 3.0 8.0 0.00 0.01 0.00 76 1010.5
20260504041102 38 255 3.0 7.0 0.00 0.01 0.00 79 1010.5
20260504040103 37 248 4.0 10.0 0.00 0.02 0.01 81 1010.4
20260504035103 37 253 3.0 6.0 0.00 0.01 0.01 81 1010.3
20260504034103 36 249 3.0 6.0 0.00 0.01 0.01 82 1010.2
20260504033102 36 261 2.0 6.0 0.00 0.01 0.01 82 1010.2
20260504032103 35 251 3.0 7.0 0.00 0.01 0.01 83 1010.1
20260504031103 35 252 2.0 5.0 0.00 0.01 0.01 83 1010.0
20260504025103 35 249 2.0 4.0 0.00 0.01 0.01 81 1010.0
20260504024102 35 254 2.0 4.0 0.00 0.01 0.01 81 1010.0
20260504023102 36 240 1.0 4.0 0.00 0.01 0.01 79 1010.0
20260504022103 36 237 2.0 3.0 0.00 0.01 0.01 78 1009.9
20260504021103 37 243 2.0 6.0 0.00 0.01 0.01 77 1009.9
20260504020103 37 246 1.0 2.0 0.00 0.01 0.01 75 1009.9
20260504015103 38 246 1.0 2.0 0.00 0.01 0.01 73 1009.8
20260504014103 38 250 0.0 1.0 0.00 0.01 0.01 71 1009.7
20260504013102 39 253 1.0 3.0 0.00 0.01 0.01 70 1009.7
20260504012103 40 313 1.0 3.0 0.00 0.01 0.01 70 1009.5
20260504011102 41 313 1.0 2.0 0.00 0.01 0.01 68 1009.3
20260504005103 43 313 0.0 1.0 0.00 0.01 0.01 64 1009.0
20260504004123 45 313 0.0 1.0 0.00 0.01 0.01 60 1008.9
20260504003103 46 313 0.0 1.0 0.00 0.01 0.01 54 1008.9
20260504002103 47 314 0.0 1.0 0.00 0.01 0.01 54 1008.8
20260504001102 49 313 1.0 3.0 0.00 0.01 0.01 47 1008.6
20260504000124 50 313 1.0 6.0 0.00 0.01 0.01 46 1008.5
20260503235103 51 333 5.0 10.0 0.00 0.01 0.01 45 1008.5
20260503234102 51 333 6.0 12.0 0.00 0.01 0.01 44 1008.3
20260503233103 52 325 7.0 19.0 0.00 0.01 0.01 42 1008.3
20260503232102 52 329 11.0 21.0 0.00 0.01 0.01 41 1008.0
20260503231103 53 335 6.0 18.0 0.00 0.01 0.01 41 1007.8
20260503230103 53 322 8.0 16.0 0.00 0.01 0.01 41 1007.6
20260503225103 53 351 9.0 18.0 0.00 0.01 0.01 43 1007.5
20260503224102 53 321 11.0 17.0 0.00 0.01 0.01 42 1007.3
20260503223103 53 343 14.0 22.0 0.00 0.01 0.01 42 1007.2
20260503222102 53 330 10.0 18.0 0.00 0.01 0.01 42 1007.1
20260503221102 53 313 11.0 20.0 0.00 0.01 0.01 41 1006.9
20260503220103 53 332 11.0 25.0 0.00 0.01 0.01 42 1006.8
20260503215102 53 315 10.0 25.0 0.00 0.01 0.01 42 1006.7
20260503214103 53 332 13.0 22.0 0.00 0.01 0.01 42 1006.6
20260503213102 54 311 9.0 21.0 0.00 0.01 0.01 43 1006.3
20260503212102 54 312 9.0 17.0 0.00 0.01 0.01 42 1006.2
20260503211103 54 333 7.0 20.0 0.00 0.01 0.01 43 1006.0
20260503205102 54 328 12.0 23.0 0.00 0.01 0.01 43 1005.8
20260503204103 54 325 14.0 24.0 0.00 0.01 0.01 43 1005.6
20260503203103 54 314 14.0 24.0 0.00 0.01 0.01 44 1005.6
20260503202124 54 333 13.0 25.0 0.00 0.01 0.01 43 1005.5
20260503201103 54 330 15.0 23.0 0.00 0.01 0.01 44 1005.4
20260503194102 54 328 10.0 16.0 0.00 0.01 0.01 48 1005.4
20260503193103 53 346 6.0 20.0 0.00 0.01 0.01 48 1005.4
20260503192124 53 12 13.0 22.0 0.00 0.01 0.01 47 1005.3
20260503191102 53 340 14.0 22.0 0.00 0.01 0.01 47 1005.3
20260503185102 53 5 10.0 18.0 0.00 0.01 0.01 50 1005.4
20260503184103 54 4 12.0 17.0 0.00 0.01 0.01 50 1005.4
20260503183102 53 352 11.0 27.0 0.00 0.01 0.01 49 1005.5
20260503182102 53 331 14.0 25.0 0.00 0.01 0.01 51 1005.4
20260503181102 53 343 14.0 22.0 0.00 0.01 0.01 51 1005.4
20260503175103 53 339 15.0 21.0 0.00 0.01 0.01 53 1005.4
20260503172103 50 4 12.0 20.0 0.00 0.01 0.01 56 1005.6
20260503171102 50 6 9.0 19.0 0.00 0.01 0.01 57 1005.7
20260503170144 50 352 16.0 33.0 0.00 0.01 0.01 58 1005.6
20260503160124 47 320 12.0 17.0 0.00 0.01 0.01 78 1005.5